JES3790 SABE-SGAS

Flight info

Callsign JES3790
Flight time 1h 32m
Altitude 37000
Route LANDA4B LANDA DCT GUA DCT DALAB UZ103 REPAM UP526 SAMGU SAMGU
Aircraft A320/M-SDE3FGHIRWY/LB1

Departure

Time 2026-05-08 17:53
Airport Aeroparque Jorge Newbery (SABE)

Arrival

Time 2026-05-08 19:25
Airport Silvio Pettirossi International Airport (SGAS)
Time Latitude Longitude Altitude Speed Heading
2026-05-08 16:42 -34.55668 -58.41529 27 ft 0 kts
2026-05-08 17:43 -34.55679 -58.41530 27 ft 2 kts
2026-05-08 17:43 -34.55692 -58.41530 27 ft 2 kts 358°
2026-05-08 17:43 -34.55703 -58.41529 27 ft 1 kts 339°
2026-05-08 17:44 -34.55712 -58.41523 27 ft 1 kts 316°
2026-05-08 17:44 -34.55719 -58.41514 27 ft 1 kts 304°
2026-05-08 17:44 -34.55723 -58.41507 27 ft 1 kts 301°
2026-05-08 17:44 -34.55726 -58.41501 27 ft 1 kts 299°
2026-05-08 17:45 -34.55727 -58.41499 27 ft 0 kts 299°
2026-05-08 17:47 -34.55722 -58.41510 27 ft 3 kts 294°
2026-05-08 17:47 -34.55723 -58.41527 27 ft 4 kts 259°
2026-05-08 17:48 -34.55754 -58.41571 26 ft 7 kts 215°
2026-05-08 17:48 -34.55803 -58.41577 28 ft 8 kts 147°
2026-05-08 17:48 -34.55836 -58.41510 29 ft 11 kts 117°
2026-05-08 17:48 -34.55875 -58.41417 26 ft 14 kts 116°
2026-05-08 17:49 -34.55921 -58.41305 27 ft 16 kts 117°
2026-05-08 17:49 -34.55985 -58.41197 27 ft 16 kts 126°
2026-05-08 17:49 -34.56050 -58.41091 27 ft 16 kts 127°
2026-05-08 17:49 -34.56123 -58.40974 27 ft 18 kts 129°
2026-05-08 17:50 -34.56157 -58.40853 27 ft 14 kts 95°
2026-05-08 17:50 -34.56211 -58.40749 27 ft 16 kts 123°
2026-05-08 17:50 -34.56276 -58.40627 27 ft 18 kts 123°
2026-05-08 17:50 -34.56361 -58.40498 26 ft 20 kts 136°
2026-05-08 17:51 -34.56474 -58.40380 26 ft 22 kts 141°
2026-05-08 17:51 -34.56566 -58.40396 26 ft 0 kts 220°
2026-05-08 17:51 -34.56565 -58.40418 26 ft 4 kts 289°
2026-05-08 17:51 -34.56560 -58.40431 25 ft 0 kts 302°
2026-05-08 17:52 -34.56559 -58.40433 25 ft 2 kts 302°
2026-05-08 17:53 -34.56433 -58.40663 26 ft 75 kts 303°
2026-05-08 17:53 -34.56001 -58.41440 35 ft 143 kts 304°
2026-05-08 17:53 -34.55430 -58.42459 694 ft 147 kts 300°
2026-05-08 17:53 -34.54773 -58.43454 1630 ft 159 kts 320°
2026-05-08 17:54 -34.53697 -58.43650 2038 ft 181 kts
2026-05-08 17:54 -34.52457 -58.43007 2557 ft 206 kts 22°
2026-05-08 17:54 -34.51148 -58.42087 3056 ft 228 kts 26°
2026-05-08 17:54 -34.49668 -58.41222 3457 ft 245 kts
2026-05-08 17:55 -34.47944 -58.41238 3932 ft 257 kts 344°
2026-05-08 17:55 -34.46154 -58.41734 4628 ft 268 kts 339°
2026-05-08 17:55 -34.44342 -58.42334 5590 ft 270 kts 339°
2026-05-08 17:55 -34.42515 -58.42927 6589 ft 272 kts 340°
2026-05-08 17:56 -34.40664 -58.43495 7538 ft 275 kts 341°
2026-05-08 17:56 -34.38788 -58.44047 8440 ft 280 kts 341°
2026-05-08 17:56 -34.36870 -58.44596 9385 ft 283 kts 342°
2026-05-08 17:56 -34.34936 -58.45144 10141 ft 293 kts 342°
2026-05-08 17:57 -34.32865 -58.45737 10486 ft 316 kts 342°
2026-05-08 17:57 -34.30683 -58.46359 10874 ft 334 kts 343°
2026-05-08 17:57 -34.28398 -58.47000 11658 ft 338 kts 343°
2026-05-08 17:57 -34.26097 -58.47644 12490 ft 342 kts 343°
2026-05-08 17:58 -34.23764 -58.48301 13305 ft 346 kts 344°
2026-05-08 17:58 -34.21404 -58.48968 14053 ft 350 kts 344°
2026-05-08 17:58 -34.19023 -58.49636 14773 ft 353 kts 343°
2026-05-08 17:58 -34.16648 -58.50304 15452 ft 357 kts 343°
2026-05-08 17:59 -34.14214 -58.50989 16162 ft 361 kts 343°
2026-05-08 17:59 -34.11749 -58.51681 16878 ft 365 kts 343°
2026-05-08 17:59 -34.09255 -58.52379 17534 ft 370 kts 343°
2026-05-08 17:59 -34.06737 -58.53082 18193 ft 374 kts 343°
2026-05-08 18:00 -34.04194 -58.53791 18795 ft 376 kts 343°
2026-05-08 18:00 -33.99049 -58.55229 19948 ft 384 kts 343°
2026-05-08 18:00 -33.96439 -58.55958 20536 ft 386 kts 343°
2026-05-08 18:01 -33.93804 -58.56693 21128 ft 389 kts 343°
2026-05-08 18:01 -33.91176 -58.57357 21699 ft 394 kts 347°
2026-05-08 18:01 -33.88414 -58.57664 22229 ft 402 kts 354°
2026-05-08 18:01 -33.85607 -58.57765 22793 ft 405 kts 354°
2026-05-08 18:02 -33.82772 -58.57876 23351 ft 408 kts 354°
2026-05-08 18:02 -33.80888 -58.57956 23659 ft 410 kts 354°
2026-05-08 18:02 -33.77045 -58.58124 24192 ft 417 kts 354°
2026-05-08 18:02 -33.74134 -58.58250 24616 ft 420 kts 354°
2026-05-08 18:03 -33.71200 -58.58377 25041 ft 423 kts 354°
2026-05-08 18:03 -33.68242 -58.58504 25448 ft 427 kts 354°
2026-05-08 18:03 -33.65257 -58.58634 25827 ft 431 kts 354°
2026-05-08 18:03 -33.62251 -58.58766 26229 ft 434 kts 354°
2026-05-08 18:04 -33.59260 -58.58897 26621 ft 437 kts 354°
2026-05-08 18:04 -33.56204 -58.59030 27007 ft 440 kts 354°
2026-05-08 18:04 -33.53129 -58.59163 27379 ft 443 kts 354°
2026-05-08 18:04 -33.50034 -58.59298 27739 ft 446 kts 354°
2026-05-08 18:05 -33.46922 -58.59436 28091 ft 449 kts 355°
2026-05-08 18:05 -33.43783 -58.59573 28432 ft 452 kts 355°
2026-05-08 18:05 -33.40629 -58.59708 28764 ft 455 kts 355°
2026-05-08 18:05 -33.37468 -58.59844 29077 ft 458 kts 355°
2026-05-08 18:06 -33.34268 -58.59981 29399 ft 460 kts 355°
2026-05-08 18:06 -33.31051 -58.60120 29714 ft 463 kts 355°
2026-05-08 18:06 -33.27827 -58.60260 30019 ft 465 kts 355°
2026-05-08 18:06 -33.24586 -58.60400 30375 ft 465 kts 355°
2026-05-08 18:07 -33.21344 -58.60539 30721 ft 466 kts 355°
2026-05-08 18:07 -33.18107 -58.60678 31072 ft 466 kts 355°
2026-05-08 18:07 -33.14900 -58.60815 31489 ft 464 kts 355°
2026-05-08 18:07 -33.11682 -58.60952 31927 ft 462 kts 354°
2026-05-08 18:08 -33.08476 -58.61091 32351 ft 460 kts 354°
2026-05-08 18:08 -33.05287 -58.61228 32759 ft 458 kts 354°
2026-05-08 18:08 -33.02108 -58.61365 33139 ft 456 kts 354°
2026-05-08 18:08 -32.98938 -58.61521 33520 ft 454 kts 353°
2026-05-08 18:09 -32.95790 -58.61775 33870 ft 452 kts 352°
2026-05-08 18:09 -32.92648 -58.62068 34150 ft 451 kts 351°
2026-05-08 18:09 -32.89518 -58.62359 34396 ft 451 kts 352°
2026-05-08 18:09 -32.86386 -58.62640 34647 ft 451 kts 352°
2026-05-08 18:10 -32.83257 -58.62911 34897 ft 451 kts 352°
2026-05-08 18:10 -32.80133 -58.63175 35136 ft 450 kts 352°
2026-05-08 18:10 -32.77011 -58.63437 35372 ft 450 kts 352°
2026-05-08 18:10 -32.73889 -58.63697 35604 ft 449 kts 351°
2026-05-08 18:11 -32.70764 -58.63957 35831 ft 449 kts 351°
2026-05-08 18:11 -32.67681 -58.64214 36044 ft 449 kts 351°
2026-05-08 18:11 -32.64569 -58.64473 36257 ft 448 kts 351°
2026-05-08 18:11 -32.61457 -58.64733 36468 ft 448 kts 351°
2026-05-08 18:12 -32.58348 -58.64994 36665 ft 448 kts 351°
2026-05-08 18:12 -32.55246 -58.65254 36835 ft 448 kts 351°
2026-05-08 18:12 -32.49038 -58.65772 36840 ft 446 kts 351°
2026-05-08 18:13 -32.42847 -58.66286 36847 ft 446 kts 351°
2026-05-08 18:13 -32.36654 -58.66784 36839 ft 447 kts 352°
2026-05-08 18:14 -32.30398 -58.66466 36856 ft 454 kts
2026-05-08 18:14 -32.24136 -58.65177 36855 ft 456 kts
2026-05-08 18:15 -32.17881 -58.63865 36859 ft 456 kts
2026-05-08 18:15 -32.11621 -58.62567 36872 ft 457 kts
2026-05-08 18:16 -32.05359 -58.61271 36870 ft 457 kts
2026-05-08 18:16 -31.99098 -58.59975 36873 ft 457 kts
2026-05-08 18:17 -31.92874 -58.58690 36880 ft 457 kts
2026-05-08 18:17 -31.86618 -58.57405 36884 ft 456 kts
2026-05-08 18:18 -31.80363 -58.56117 36888 ft 456 kts
2026-05-08 18:18 -31.74113 -58.54831 36891 ft 455 kts
2026-05-08 18:19 -31.67876 -58.53548 36895 ft 455 kts
2026-05-08 18:19 -31.61636 -58.52267 36893 ft 454 kts
2026-05-08 18:20 -31.55413 -58.50988 36893 ft 454 kts
2026-05-08 18:20 -31.49225 -58.49722 36894 ft 453 kts
2026-05-08 18:21 -31.43010 -58.48453 36889 ft 452 kts
2026-05-08 18:21 -31.36850 -58.47196 36890 ft 452 kts
2026-05-08 18:22 -31.30659 -58.45933 36893 ft 451 kts
2026-05-08 18:22 -31.25480 -58.44878 36894 ft 451 kts
2026-05-08 18:23 -31.19339 -58.43624 36897 ft 450 kts
2026-05-08 18:23 -31.13164 -58.42369 36900 ft 450 kts
2026-05-08 18:24 -31.06993 -58.41120 36905 ft 449 kts
2026-05-08 18:24 -31.00839 -58.39874 36910 ft 449 kts
2026-05-08 18:25 -30.94680 -58.38627 36913 ft 449 kts
2026-05-08 18:25 -30.88531 -58.37383 36917 ft 448 kts
2026-05-08 18:26 -30.82397 -58.36044 36918 ft 449 kts
2026-05-08 18:26 -30.76278 -58.34679 36923 ft 448 kts
2026-05-08 18:27 -30.71184 -58.33557 36924 ft 447 kts
2026-05-08 18:27 -30.64039 -58.31988 36927 ft 447 kts
2026-05-08 18:28 -30.57967 -58.30665 36930 ft 445 kts
2026-05-08 18:28 -30.51871 -58.29491 36932 ft 443 kts 359°
2026-05-08 18:29 -30.45795 -58.28341 36937 ft 442 kts 359°
2026-05-08 18:29 -30.39725 -58.27176 36932 ft 441 kts 359°
2026-05-08 18:30 -30.33671 -58.26009 36937 ft 440 kts 359°
2026-05-08 18:30 -30.27633 -58.24848 36933 ft 439 kts 359°
2026-05-08 18:31 -30.21640 -58.23698 36931 ft 439 kts 359°
2026-05-08 18:31 -30.15626 -58.22547 36933 ft 438 kts 359°
2026-05-08 18:32 -30.09617 -58.21397 36942 ft 437 kts 358°
2026-05-08 18:32 -30.03622 -58.20251 36931 ft 436 kts 358°
2026-05-08 18:33 -29.97635 -58.19109 36928 ft 435 kts 358°
2026-05-08 18:33 -29.91657 -58.17965 36935 ft 435 kts 358°
2026-05-08 18:34 -29.85689 -58.16827 36933 ft 434 kts 358°
2026-05-08 18:34 -29.79782 -58.15692 36937 ft 434 kts 358°
2026-05-08 18:35 -29.73831 -58.14442 36939 ft 434 kts 359°
2026-05-08 18:35 -29.67887 -58.13184 36940 ft 434 kts 358°
2026-05-08 18:36 -29.61946 -58.11944 36940 ft 433 kts 358°
2026-05-08 18:36 -29.56013 -58.10713 36941 ft 433 kts 358°
2026-05-08 18:37 -29.50091 -58.09478 36941 ft 432 kts 358°
2026-05-08 18:37 -29.44175 -58.08248 36943 ft 432 kts 358°
2026-05-08 18:38 -29.38267 -58.06926 36946 ft 435 kts
2026-05-08 18:38 -29.32358 -58.05312 36945 ft 436 kts
2026-05-08 18:39 -29.26500 -58.03730 36949 ft 435 kts
2026-05-08 18:39 -29.20605 -58.02172 36954 ft 434 kts
2026-05-08 18:40 -29.14716 -58.00626 36959 ft 434 kts
2026-05-08 18:40 -29.08830 -57.99082 36958 ft 433 kts
2026-05-08 18:41 -29.02949 -57.97541 36957 ft 433 kts
2026-05-08 18:41 -28.97088 -57.96006 36960 ft 432 kts
2026-05-08 18:42 -28.91254 -57.94481 36963 ft 432 kts
2026-05-08 18:42 -28.85388 -57.92949 36956 ft 431 kts
2026-05-08 18:43 -28.79544 -57.91424 36952 ft 431 kts
2026-05-08 18:43 -28.73692 -57.89899 36952 ft 431 kts
2026-05-08 18:44 -28.67848 -57.88379 36948 ft 431 kts
2026-05-08 18:44 -28.61994 -57.86856 36947 ft 431 kts
2026-05-08 18:45 -28.56150 -57.85339 36949 ft 431 kts
2026-05-08 18:45 -28.50297 -57.83821 36949 ft 431 kts
2026-05-08 18:46 -28.44445 -57.82304 36951 ft 431 kts
2026-05-08 18:46 -28.38624 -57.80798 36958 ft 432 kts
2026-05-08 18:47 -28.32756 -57.79281 36961 ft 432 kts
2026-05-08 18:47 -28.26888 -57.77760 36959 ft 433 kts
2026-05-08 18:48 -28.21016 -57.76212 36968 ft 434 kts
2026-05-08 18:48 -28.15126 -57.74661 36970 ft 434 kts
2026-05-08 18:49 -28.09251 -57.73119 36965 ft 434 kts
2026-05-08 18:49 -28.03356 -57.71574 36973 ft 434 kts
2026-05-08 18:50 -27.97509 -57.70043 36975 ft 434 kts
2026-05-08 18:50 -27.91617 -57.68503 36969 ft 434 kts
2026-05-08 18:51 -27.85734 -57.66967 36976 ft 434 kts
2026-05-08 18:51 -27.79846 -57.65431 36979 ft 434 kts
2026-05-08 18:52 -27.73969 -57.63899 36979 ft 433 kts
2026-05-08 18:52 -27.68097 -57.62371 36974 ft 433 kts
2026-05-08 18:53 -27.62273 -57.60856 36974 ft 432 kts
2026-05-08 18:53 -27.56413 -57.59334 36969 ft 432 kts
2026-05-08 18:54 -27.50562 -57.57816 36967 ft 431 kts
2026-05-08 18:54 -27.44718 -57.56337 36966 ft 427 kts 358°
2026-05-08 18:55 -27.38927 -57.55679 36968 ft 412 kts 349°
2026-05-08 18:55 -27.36059 -57.55612 36965 ft 412 kts 349°
2026-05-08 18:56 -27.30326 -57.55458 36968 ft 412 kts 349°
2026-05-08 18:56 -27.24589 -57.55292 36965 ft 412 kts 349°
2026-05-08 18:57 -27.18869 -57.55127 36966 ft 412 kts 349°
2026-05-08 18:57 -27.13127 -57.54961 36969 ft 413 kts 349°
2026-05-08 18:58 -27.07407 -57.54800 36973 ft 413 kts 349°
2026-05-08 18:58 -27.01684 -57.54635 36726 ft 406 kts 349°
2026-05-08 18:58 -26.98861 -57.54553 35891 ft 409 kts 349°
2026-05-08 18:59 -26.95992 -57.54477 35013 ft 415 kts 349°
2026-05-08 18:59 -26.93082 -57.54399 34174 ft 419 kts 349°
2026-05-08 18:59 -26.90156 -57.54317 33287 ft 423 kts 349°
2026-05-08 18:59 -26.87195 -57.54231 32407 ft 426 kts 349°
2026-05-08 19:00 -26.85228 -57.54174 31829 ft 428 kts 349°
2026-05-08 19:00 -26.81268 -57.54101 30648 ft 431 kts 349°
2026-05-08 19:00 -26.78255 -57.54075 29832 ft 433 kts 348°
2026-05-08 19:00 -26.75250 -57.54048 29136 ft 429 kts 349°
2026-05-08 19:01 -26.72275 -57.54016 28489 ft 425 kts 349°
2026-05-08 19:01 -26.69332 -57.53984 27831 ft 421 kts 349°
2026-05-08 19:01 -26.66411 -57.53952 27180 ft 418 kts 349°
2026-05-08 19:01 -26.63570 -57.53921 26562 ft 415 kts 350°
2026-05-08 19:02 -26.60626 -57.53886 25933 ft 412 kts 350°
2026-05-08 19:02 -26.57764 -57.53854 25326 ft 409 kts 350°
2026-05-08 19:02 -26.54931 -57.53825 24747 ft 406 kts 350°
2026-05-08 19:02 -26.52115 -57.53797 24150 ft 404 kts 351°
2026-05-08 19:03 -26.49349 -57.53770 23594 ft 401 kts 351°
2026-05-08 19:03 -26.46562 -57.53742 22958 ft 398 kts 351°
2026-05-08 19:03 -26.43808 -57.53712 22390 ft 393 kts 351°
2026-05-08 19:03 -26.41088 -57.53684 21825 ft 389 kts 351°
2026-05-08 19:04 -26.38393 -57.53656 21263 ft 384 kts 351°
2026-05-08 19:04 -26.35731 -57.53629 20718 ft 380 kts 352°
2026-05-08 19:04 -26.33099 -57.53603 20173 ft 377 kts 352°
2026-05-08 19:04 -26.30517 -57.53577 19656 ft 373 kts 352°
2026-05-08 19:05 -26.27940 -57.53551 19139 ft 369 kts 352°
2026-05-08 19:05 -26.25387 -57.53524 18656 ft 365 kts 352°
2026-05-08 19:05 -26.22856 -57.53498 18119 ft 361 kts 352°
2026-05-08 19:05 -26.20357 -57.53473 17566 ft 357 kts 353°
2026-05-08 19:06 -26.17883 -57.53448 17021 ft 354 kts 353°
2026-05-08 19:06 -26.15430 -57.53423 16489 ft 350 kts 353°
2026-05-08 19:06 -26.13009 -57.53399 15956 ft 347 kts 353°
2026-05-08 19:06 -26.10606 -57.53375 15438 ft 343 kts 354°
2026-05-08 19:07 -26.08226 -57.53317 14926 ft 343 kts 357°
2026-05-08 19:07 -26.05852 -57.52988 14433 ft 342 kts
2026-05-08 19:07 -26.03506 -57.52596 13963 ft 339 kts
2026-05-08 19:07 -26.01184 -57.52214 13428 ft 336 kts
2026-05-08 19:08 -25.98877 -57.51841 12854 ft 335 kts
2026-05-08 19:08 -25.96572 -57.51471 12257 ft 334 kts
2026-05-08 19:08 -25.94301 -57.51106 11667 ft 333 kts
2026-05-08 19:08 -25.92010 -57.50738 11148 ft 332 kts
2026-05-08 19:09 -25.89769 -57.50374 10981 ft 319 kts
2026-05-08 19:09 -25.87624 -57.50022 10850 ft 305 kts
2026-05-08 19:09 -25.85566 -57.49685 10735 ft 292 kts
2026-05-08 19:09 -25.83581 -57.49361 10452 ft 286 kts
2026-05-08 19:10 -25.81611 -57.49043 10059 ft 286 kts
2026-05-08 19:10 -25.79648 -57.48726 9664 ft 284 kts
2026-05-08 19:10 -25.77689 -57.48408 9142 ft 286 kts
2026-05-08 19:10 -25.76379 -57.48196 8782 ft 289 kts
2026-05-08 19:11 -25.74376 -57.47870 8275 ft 292 kts
2026-05-08 19:11 -25.72353 -57.47541 7801 ft 294 kts
2026-05-08 19:11 -25.70334 -57.47214 7408 ft 293 kts
2026-05-08 19:11 -25.68317 -57.46887 7101 ft 289 kts
2026-05-08 19:12 -25.66363 -57.46569 7002 ft 281 kts
2026-05-08 19:12 -25.64280 -57.46227 6993 ft 324 kts
2026-05-08 19:12 -25.61914 -57.45842 6989 ft 359 kts
2026-05-08 19:12 -25.59452 -57.45446 6987 ft 348 kts
2026-05-08 19:13 -25.57114 -57.45069 6985 ft 329 kts
2026-05-08 19:13 -25.54933 -57.44716 6982 ft 311 kts
2026-05-08 19:13 -25.52850 -57.44379 6982 ft 294 kts
2026-05-08 19:13 -25.50851 -57.44055 6981 ft 291 kts
2026-05-08 19:14 -25.48830 -57.43727 6980 ft 292 kts
2026-05-08 19:14 -25.46820 -57.43400 6979 ft 292 kts
2026-05-08 19:14 -25.44804 -57.43074 6973 ft 292 kts
2026-05-08 19:14 -25.42796 -57.42749 6974 ft 290 kts
2026-05-08 19:15 -25.40811 -57.42430 6974 ft 292 kts
2026-05-08 19:15 -25.38798 -57.42108 6970 ft 291 kts
2026-05-08 19:15 -25.36779 -57.41782 6972 ft 292 kts
2026-05-08 19:15 -25.34808 -57.41373 6968 ft 291 kts 13°
2026-05-08 19:16 -25.32827 -57.40884 6968 ft 291 kts 13°
2026-05-08 19:16 -25.30839 -57.40399 6945 ft 290 kts 13°
2026-05-08 19:16 -25.28881 -57.39921 6682 ft 288 kts 13°
2026-05-08 19:16 -25.26942 -57.39450 6326 ft 287 kts 13°
2026-05-08 19:17 -25.24993 -57.38976 5944 ft 286 kts 14°
2026-05-08 19:17 -25.23041 -57.38504 5550 ft 286 kts 14°
2026-05-08 19:17 -25.21099 -57.38033 5179 ft 285 kts 14°
2026-05-08 19:17 -25.19180 -57.37566 4801 ft 285 kts 14°
2026-05-08 19:18 -25.17238 -57.37095 4432 ft 284 kts 15°
2026-05-08 19:18 -25.15299 -57.36625 4095 ft 283 kts 15°
2026-05-08 19:18 -25.13392 -57.36172 3655 ft 280 kts 14°
2026-05-08 19:18 -25.11492 -57.35799 3183 ft 280 kts
2026-05-08 19:19 -25.09603 -57.36248 3041 ft 284 kts 332°
2026-05-08 19:19 -25.08080 -57.37589 2924 ft 278 kts 305°
2026-05-08 19:19 -25.07260 -57.39441 2588 ft 264 kts 280°
2026-05-08 19:19 -25.06976 -57.41361 2317 ft 239 kts 272°
2026-05-08 19:20 -25.06817 -57.43101 1968 ft 218 kts 272°
2026-05-08 19:20 -25.06704 -57.44148 1891 ft 196 kts 274°
2026-05-08 19:20 -25.06451 -57.45965 1800 ft 161 kts 271°
2026-05-08 19:20 -25.06615 -57.47049 1792 ft 132 kts 237°
2026-05-08 19:21 -25.07246 -57.47768 1811 ft 138 kts 205°
2026-05-08 19:21 -25.08150 -57.48048 1802 ft 137 kts 191°
2026-05-08 19:21 -25.09079 -57.48269 1807 ft 137 kts 191°
2026-05-08 19:21 -25.10014 -57.48499 1799 ft 137 kts 191°
2026-05-08 19:22 -25.10951 -57.48730 1813 ft 140 kts 191°
2026-05-08 19:22 -25.11898 -57.48961 1801 ft 137 kts 191°
2026-05-08 19:22 -25.12841 -57.49192 1797 ft 138 kts 192°
2026-05-08 19:22 -25.13777 -57.49421 1795 ft 138 kts 192°
2026-05-08 19:23 -25.14714 -57.49651 1798 ft 138 kts 191°
2026-05-08 19:23 -25.15663 -57.49880 1796 ft 140 kts 191°
2026-05-08 19:23 -25.16599 -57.50109 1769 ft 135 kts 192°
2026-05-08 19:23 -25.17542 -57.50345 1381 ft 144 kts 192°
2026-05-08 19:24 -25.18555 -57.50592 1092 ft 148 kts 192°
2026-05-08 19:24 -25.19524 -57.50835 880 ft 140 kts 191°
2026-05-08 19:24 -25.20472 -57.51051 632 ft 141 kts 193°
2026-05-08 19:24 -25.21434 -57.51276 500 ft 140 kts 193°
2026-05-08 19:25 -25.22373 -57.51518 355 ft 137 kts 193°
2026-05-08 19:25 -25.23254 -57.51734 268 ft 116 kts 193°
2026-05-08 19:25 -25.23748 -57.51859 273 ft 46 kts 193°
2026-05-08 19:25 -25.24045 -57.51929 280 ft 36 kts 190°
2026-05-08 19:26 -25.24089 -57.51939 281 ft 1 kts 188°
2026-05-08 19:26 -25.24103 -57.51941 281 ft 3 kts 188°
2026-05-08 19:26 -25.24156 -57.51954 282 ft 13 kts 194°
2026-05-08 19:26 -25.24243 -57.51961 284 ft 11 kts 137°
2026-05-08 19:27 -25.24272 -57.51868 282 ft 9 kts 102°
2026-05-08 19:27 -25.24273 -57.51865 282 ft 0 kts 102°
2026-05-08 19:28 -25.24273 -57.51863 282 ft 2 kts 102°
2026-05-08 19:28 -25.24285 -57.51806 282 ft 12 kts 103°
2026-05-08 19:28 -25.24305 -57.51697 282 ft 15 kts 84°
2026-05-08 19:28 -25.24250 -57.51653 281 ft 7 kts 15°
2026-05-08 19:29 -25.24186 -57.51635 280 ft 12 kts 14°
2026-05-08 19:29 -25.24128 -57.51588 282 ft 11 kts 56°
2026-05-08 19:29 -25.24115 -57.51532 279 ft 8 kts 97°
2026-05-08 19:29 -25.24122 -57.51497 279 ft 5 kts 103°
2026-05-08 19:30 -25.24124 -57.51492 279 ft 0 kts 103°